TIME,DELAY(SENSOR),PRES,OXYGEN,RAWTEMP,T(OPTODE),TCPHASE,FLUOR,BETA(BETA700),BETA(BETA412),BETA(BETA440),CDOM,C(CSC),ED(ED412.20),ED(ED444.00),ED(ED489.60),ED(ED554.30),LU(LU412.10),LU(LU443.90),LU(LU489.70),LU(LU554.70),COMP,TILTX,TILTY,CHECK
1347851756,5810,897.0399780273438000,33.0226593017578100,559.4318847656250000,4.5035018920898440,56.5913887023925800,55,99,102,78,84,15561,0,0,0,0,2147119497,2147774637,2147571538,2147571657,1714,3,13,12130
1347855352,5810,968.4099731445312000,39.4560317993164060,564.9987792968750000,4.3308701515197750,55.6467094421386700,55,100,101,79,82,15558,0,0,0,0,2147121444,2147776201,2147568923,2147571136,3067,3,13,52035
1347858952,5810,978.7600097656250000,41.5064506530761700,565.8601074218750000,4.3041381835937500,55.3493003845214840,55,98,99,77,83,15556,0,0,0,0,2147122898,2147771885,2147576923,2147569024,88,3,13,12367
1347862552,5810,984.7999877929688000,41.0239982604980500,566.6619873046875000,4.2792429924011230,55.4287109375000000,55,99,100,77,84,15553,0,0,0,0,2147125174,2147770130,2147574820,2147568813,181,3,13,5678
1347866152,5811,988.8499755859375000,40.5611305236816400,567.0895996093750000,4.2659659385681150,55.4998893737793000,53,97,100,78,82,15554,0,0,0,0,2147124544,2147773312,2147572608,2147571465,47,3,12,38068
1347869752,5809,993.2399902343750000,40.6731491088867200,566.6392822265625000,4.2799491882324220,55.4817085266113300,55,101,101,78,82,15552,0,0,0,0,2147122441,2147767917,2147572251,2147566985,104,3,13,50102
1347873352,5810,1001.2100219726562000,40.0488395690918000,567.0902099609375000,4.2659468650817870,55.5746803283691400,55,99,102,76,83,15554,0,0,0,0,2147121216,2147772745,2147571757,2147572150,171,3,13,32065
1347876952,5809,997.5700073242188000,40.5110282897949200,566.9470825195312000,4.2703900337219240,55.5028381347656250,55,97,103,77,82,15553,0,0,0,0,2147124370,2147770688,2147576018,2147569956,3381,3,13,51541
1347880552,5809,1000.3800048828125000,40.5348396301269500,566.9614868164062000,4.2699451446533200,55.5044097900390600,56,98,100,79,82,15554,0,0,0,0,2147121106,2147771794,2147572196,2147568237,3452,3,13,52577
1347884152,5812,995.0800170898438000,39.2672882080078100,566.9736938476562000,4.2695670127868650,55.6976509094238300,55,99,101,77,83,15554,0,0,0,0,2147124452,2147774875,2147573924,2147569106,3531,3,13,15427
1347887752,5810,993.1900024414062000,37.9658584594726560,566.7968750000000000,4.2750549316406250,55.8922195434570300,55,98,100,78,81,15553,0,0,0,0,2147124123,2147770797,2147573248,2147566198,617,3,13,51917
1347891352,5809,993.3099975585938000,37.6184692382812500,566.7844238281250000,4.2754440307617190,55.9409713745117200,56,98,100,78,83,15553,0,0,0,0,2147122678,2147770788,2147574564,2147567460,252,3,13,46034
1347894952,5813,1002.4899902343750000,37.4878196716308600,566.8748779296875000,4.2726330757141110,55.9625892639160160,56,98,100,79,83,15552,0,0,0,0,2147123465,2147774299,2147568228,2147565860,27,3,12,52042
1347898552,5811,1002.6300048828125000,38.6453208923339840,567.0490112304688000,4.2672271728515625,55.7859687805175800,56,99,101,78,83,15549,0,0,0,0,2147123638,2147774875,2147570276,2147570980,68,3,13,7873
1347902152,5812,1003.5800170898438000,38.6641693115234400,566.9683227539062000,4.2697348594665530,55.7845001220703100,56,99,101,80,84,15553,0,0,0,0,2147120457,2147769673,2147577289,2147568246,81,3,12,43908
1347905752,5812,1000.7399902343750000,37.8967285156250000,566.8594970703125000,4.2731127738952640,55.8984794616699200,56,98,100,78,83,15540,0,0,0,0,2147120777,2147771712,2147571547,2147567597,3442,3,13,43794
1347909352,5813,1003.5499877929688000,39.3768997192382800,566.8629150390625000,4.2730059623718260,55.6723899841308600,55,100,104,77,82,15552,0,0,0,0,2147125888,2147776292,2147575588,2147569910,3023,3,13,64264
1347912952,5811,1010.4799804687500000,38.4725494384765600,566.9630737304688000,4.2698941230773930,55.8125991821289060,55,100,101,78,84,15549,0,0,0,0,2147124178,2147769206,2147575570,2147569618,39,3,12,49260
1347916552,5810,1007.5900268554688000,40.1108207702636700,566.7761840820312000,4.2757000923156740,55.5635795593261700,55,101,100,77,82,15548,0,0,0,0,2147121270,2147769691,2147574262,2147568630,23,3,12,46782
1347920152,5812,1005.3699951171875000,40.1075706481933600,567.0244140625000000,4.2679920196533200,55.5669898986816400,56,99,101,78,82,15545,0,0,0,0,2147120064,2147769069,2147574656,2147567104,3296,3,13,32455
1347923752,5812,1008.0000000000000000,39.8923492431640600,567.0385742187500000,4.2675509452819820,55.6022796630859400,54,99,100,79,83,15547,0,0,0,0,2147119606,2147776329,2147571291,2147567917,3509,3,13,60781
1347927352,5812,1004.3599853515625000,39.1912918090820300,566.8372802734375000,4.2737998962402340,55.7006187438964840,55,99,101,77,83,15548,0,0,0,0,2147123474,2147771337,2147573650,2147568576,3544,3,13,45776
1347930952,5810,1001.8300170898438000,37.3435211181640600,566.7285156250000000,4.2771778106689450,55.9847908020019500,55,100,100,79,84,15549,0,0,0,0,2147123958,2147773275,2147573641,2147569499,331,3,13,36174
1347934552,5807,1005.0599975585938000,37.9081611633300800,566.8776855468750000,4.2725467681884770,55.8965187072753900,55,100,102,77,83,15536,0,0,0,0,2147123446,2147772342,2147576859,2147568128,128,3,13,15436
1347938152,5810,1007.6199951171875000,37.6871604919433600,566.7902221679688000,4.2752652168273930,55.9282608032226560,56,100,101,78,82,15538,0,0,0,0,2147122825,2147768777,2147570358,2147569152,90,3,13,60601
1347941752,5809,1001.8599853515625000,38.2266197204589840,567.0684204101562000,4.2666258811950680,55.8513488769531250,55,100,101,78,83,15537,0,0,0,0,2147125824,2147775268,2147571849,2147571209,269,3,13,18365
1347945352,5810,1003.6400146484375000,38.3972206115722660,568.8076782226562000,4.2126049995422360,55.8418083190918000,55,99,102,79,83,15538,0,0,0,0,2147121133,2147775040,2147573065,2147566390,127,3,13,39591
1347948952,5811,1007.9799804687500000,39.3317413330078100,568.4943847656250000,4.2223381996154785,55.6984100341796900,55,98,100,77,82,15538,0,0,0,0,2147122121,2147775780,2147573366,2147569344,3408,3,13,65241
1347952552,5811,1002.5300292968750000,39.2653808593750000,566.8635864257812000,4.2729840278625490,55.6952209472656250,55,101,101,79,82,15535,0,0,0,0,2147121481,2147771638,2147569033,2147569773,144,3,13,7253
1347956152,5810,1009.7700195312500000,38.7758903503418000,566.9829101562500000,4.2692790031433105,55.7663307189941400,55,99,100,78,83,15536,0,0,0,0,2147119853,2147776530,2147573485,2147567890,262,3,13,24722
1347959752,5808,1006.9500122070312000,39.1843490600585940,566.9365844726562000,4.2707200050354000,55.7076492309570300,56,98,100,79,84,15535,0,0,0,0,2147125238,2147774134,2147571245,2147568173,140,3,13,24121
1347963352,5811,1009.0399780273438000,37.5669898986816400,566.6378784179688000,4.2799911499023440,55.9498405456543000,55,99,101,77,83,15535,0,0,0,0,2147124059,2147775259,2147573412,2147572114,3296,3,13,2880
1347966952,5809,1009.6699829101562000,37.1547088623046900,566.7780151367188000,4.2756438255310060,56.0102005004882800,54,98,100,77,84,15532,0,0,0,0,2147120777,2147774372,2147574820,2147570944,146,3,13,30142
1347970552,5810,1012.4400024414062000,37.7061309814453100,566.6085815429688000,4.2809028625488280,55.9275588989257800,55,99,100,77,83,15534,0,0,0,0,2147121188,2147769206,2147576758,2147569709,3511,3,13,32845
1347974152,5812,1013.1400146484375000,37.4942893981933600,566.5861206054688000,4.2816009521484375,55.9608612060546900,56,97,100,78,84,15532,0,0,0,0,2147120850,2147772251,2147570706,2147572644,3476,3,13,59768
1347977752,5810,1008.5399780273438000,37.2381095886230500,566.6901245117188000,4.2783699035644530,56.0016899108886700,55,99,100,77,83,15534,0,0,0,0,2147124333,2147769435,2147570706,2147568118,3477,3,13,27293
1347981352,5807,1003.3599853515625000,37.7812004089355500,568.0656127929688000,4.2356572151184080,55.9261894226074200,55,99,100,78,82,15535,0,0,0,0,2147121700,2147771382,2147571776,2147568795,325,3,13,63255
1347984952,5809,1004.5800170898438000,39.2067604064941400,568.8129272460938000,4.2124462127685550,55.7232818603515600,56,98,101,78,84,15534,0,0,0,0,2147123803,2147774875,2147576896,2147568950,102,3,13,12553
1347988552,5810,1002.8599853515625000,38.5665893554687500,569.1126708984375000,4.2031288146972660,55.8219299316406250,55,98,100,77,84,15533,0,0,0,0,2147123940,2147772214,2147577334,2147568640,3463,3,13,32136
1347992152,5810,1008.4899902343750000,38.5856704711914060,569.0482177734375000,4.2051329612731930,55.8157691955566400,54,99,101,79,82,15533,0,0,0,0,2147124726,2147772918,2147571090,2147569380,3560,3,13,45407
1347995752,5808,1013.2100219726562000,38.6109008789062500,567.6644287109375000,4.2481169700622560,55.7977790832519500,55,99,101,78,82,15533,0,0,0,0,2147122870,2147772681,2147577819,2147569545,190,3,13,27259
1347996356,5810,1011.3400268554688000,38.3830986022949200,567.4965820312500000,4.2533278465271000,55.8292198181152340,55,97,100,78,83,15534,0,0,0,0,2147124096,2147772077,2147570176,2147569426,3552,3,13,35062
